Tracking 19846 objects as of 18-Sep-2019
HD Live streaming from Space Station
objects crossing your sky now

CZ-4 DEB

Track CZ-4 DEB now!
10-day predictions


NORAD ID: 26449
Int'l Code: 1999-057KW
Perigee: 690.1 km
Apogee: 815.9 km
Inclination: 98.7 °
Period: 99.7 minutes
Semi major axis: 7124 km
RCS: 0.044 m2 (small)
Launch date: October 14, 1999
Source: People's Republic of China (PRC)
Launch site: Taiyaun Space Center, China (TSC)

Note: This is SATELLITE DEBRIS
aabbcc
Your satellite tracking list
Your tracking list is empty




NASA's NSSDC Master Catalog

Two Line Element Set (TLE):
1 26449U 99057KW  19260.54180497  .00000134  00000-0  51101-4 0  9991
2 26449  98.6606 244.0333 0088248 107.0521  10.3012 14.43831463 22342
Source of the keplerian elements: AFSPC